Location: Unspecified
(58.9933°N, 5.6375°E)
Time: 19:42:02
(UTC+01:00)

Cosmos 1674 - Visible Passes

Search period start: 23 February 2018 00:00
Search period end: 05 March 2018 00:00
Orbit: 498 x 521 km, 82.5° (Epoch: 22 February)

Date Brightness Start Highest point End Pass type
(mag) Time Alt. Az. Time Alt. Az. Time Alt. Az.
28 Feb 5.9 22:53:12 10° N 22:53:24 11° N 22:53:24 11° N visible
01 Mar 5.7 22:36:14 10° N 22:36:38 12° N 22:36:38 12° N visible
02 Mar 5.5 22:19:16 10° N 22:19:53 14° N 22:19:53 14° N visible
03 Mar 5.3 22:02:19 10° N 22:03:08 14° N 22:03:08 14° N visible
03 Mar 6.0 23:37:45 10° NNW 23:38:01 12° NNW 23:38:01 12° NNW visible
04 Mar 5.2 21:45:24 10° N 21:46:24 15° NNE 21:46:24 15° NNE visible
04 Mar 5.8 23:20:41 10° NNW 23:21:16 14° NNW 23:21:16 14° NNW visible
